Weather in Mikryakovo

Russia / Mari El Republic     56°12′21″N   46°14′18″E
temp.,
°C
wind,
m/s
gust,
m/s
humid.,
%
clouds,
%
prec.,
mm/h
press.,
hPa
HPBL,
m
27 february, sat
sat2700:00−8ese3496100 1.6 996150
03:00−8ene2397100 2.6 99697
06:00−12ne479599 0.6 996249
09:00−12nne5893100 0.9 998418
12:00−12nne6990100 0.1 1001615
15:00−13n6989100 0.2 1004728
18:00−14n41092100 0.1 1007532
21:00−17nnw389693 0.1 1009165
28 february, sun
sun2800:00−20nnw369834 0.0 1009114
03:00−21nnw369948 0.0 1010116
06:00−22nnw239961 0.0 101161
09:00−19nnw369767 0.0 1012203
12:00−14nnw359396 0.0 1012345
15:00−11nnw469199 0.1 1014525
18:00−14nnw3396100 0.0 101546
21:00−17nnw229888 0.1 101820
1 march, mon
mon100:00−19nnw1210079 0.0 101920
03:00−20nw2210079 0.1 102120
06:00−21nw1210076 0.0 102220
09:00−17w129675 0.0 102393
12:00−11wsw239083 0.0 1022346
15:00−9sw359392 0.1 1021376
18:00−11sw4896100 0.1 1018213
21:00−9sw51194100 0.1 1015309
2 march, tue
tue200:00−6sw61293100 0.1 1011446
03:00−4sw71395100 1.3 1006643
06:00−1sw61297100 1.5 1002629
09:000w5999100 3.2 1000614
12:000wnw48100100 0.6 998605
15:000w49100100 0.9 999640
18:00−1nw41290100 0.7 1000507
21:00−2nw5119499 0.8 1002544
3 march, wed
wed300:00−4nw4109397 0.1 1002441
03:00−5wnw399695 0.3 1003307
06:00−4nw499697 0.4 1003504
09:00−4nw5109498 0.8 1005569
12:00−2nnw6992100 0.3 1007809
15:00−3nnw51084100 0.4 1009931
18:00−6nw4129027 0.0 1010384
21:00−7nw4119259 0.1 1012334